This demonstration page uses our WeatherBlox Daily Observations layout. Learn more.

Left ArrowRight Arrow

34.16533, -84.80231

Hourly Observations for April 5, 2016

Temp ( °F °C ) Dew Point ( °F °C ) Humidity (%) Winds ( mph kmh ) Pressure ( in mb ) Visibility ( mi km ) Precip ( " mm )
12:53 am 00:53 Clear 57 13.9 43 6.1 60 60 Calm 30.06 1018 10 16 0.00 0.00
1:53 am 01:53 Clear 60 15.6 38 3.3 44 44 VRB 5 7 30.06 1018 10 16 0.00 0.00
2:53 am 02:53 Clear 60 15.6 35 1.7 39 39 undefined N/A 30.08 1019 10 16 0.00 0.00
3:53 am 03:53 Clear 56 13.3 28 -2.2 34 34 NNW 9 15 30.10 1019 10 16 0.00 0.00
4:53 am 04:53 Clear 53 11.7 30 -1.1 41 41 NNW 6 9 30.13 1020 10 16 0.00 0.00
5:53 am 05:53 Clear 51 10.6 31 -0.6 46 46 N 7 11 30.16 1021 10 16 0.00 0.00
6:53 am 06:53 Clear 47 8.3 33 0.6 59 59 VRB 3 6 30.19 1022 10 16 0.00 0.00
7:53 am 07:53 Sunny 47 8.3 32 0 56 56 NNW 7 11 30.21 1023 10 16 0.00 0.00
8:53 am 08:53 Sunny 48 8.9 31 -0.6 52 52 VRB 7 11 30.24 1024 10 16 0.00 0.00
9:53 am 09:53 Sunny 50 10 31 -0.6 48 48 VRB 3 6 30.25 1025 10 16 0.00 0.00
10:53 am 10:53 Sunny 53 11.7 31 -0.6 43 43 VRB 7 11 30.27 1025 10 16 0.00 0.00
11:53 am 11:53 Sunny 55 12.8 32 0 42 42 N 7 11 30.28 1026 10 16 0.00 0.00
12:10 pm 12:10 Mostly Sunny 55 12.8 32 0 42 42 N 9 15 30.30 1026 9 14 0.00 0.00
12:53 pm 12:53 Sunny 58 14.4 32 0 38 38 VRB 6 9 30.27 1025 10 16 0.00 0.00
1:53 pm 13:53 Sunny 60 15.6 31 -0.6 33 33 N 10 17 30.26 1025 10 16 0.00 0.00
2:53 pm 14:53 Sunny 62 16.7 30 -1.1 30 30 VRB 3 6 30.24 1024 10 16 0.00 0.00
3:53 pm 15:53 Sunny 63 17.2 28 -2.2 27 27 N 10 17 30.22 1024 10 16 0.00 0.00
4:53 pm 16:53 Sunny 65 18.3 28 -2.2 25 25 N 8 13 30.21 1023 10 16 0.00 0.00
5:53 pm 17:53 Sunny 64 17.8 27 -2.8 25 25 NNW 6 9 30.21 1023 10 16 0.00 0.00
6:53 pm 18:53 Sunny 62 16.7 25 -3.9 24 24 NNW 6 9 30.20 1023 10 16 0.00 0.00
8:53 pm 20:53 Clear 47 8.3 36 2.2 66 66 Calm 30.22 1023 10 16 0.00 0.00
9:53 pm 21:53 Clear 45 7.2 34 1.1 66 66 Calm 30.23 1024 10 16 0.00 0.00
10:53 pm 22:53 Clear 43 6.1 33 0.6 68 68 Calm 30.23 1024 10 16 0.00 0.00
11:53 pm 23:53 Clear 38 3.3 33 0.6 83 83 Calm 30.22 1023 10 16 0.00 0.00

Powered by AerisWeather